Location: Puketoi
(40.5833°S, 176.0167°E)
Time: 01:05:10
(UTC+00:00)

COSMOS 2455 - Pass Details

Date: 03 October 2023
Orbit: 902 x 907 km, 67.1° (Epoch: 03 December)

Event Time Altitude Azimuth Distance (km) Brightness Sun altitude
Exits shadow 11:20:08 19° 192° (SSW) 2,061 5.2 -44.3°
Drops below altitude 10° 11:22:25 10° 173° (S) 2,616 5.8 -44.4°
Sets 11:25:27 0° 159° (SSE) 3,562 6.5 -44.5°
